User: anonymous   Login
Location: Ladysmith
(45.4630°N, 91.1040°W)
Time: 11:20:58
(UTC-05:00)
Language:

SO-67 - Orbit

View from above orbital plane
View from above orbital plane
View from above satellite
View from above satellite

Ground track
Ground track

The orbit data is extracted from the following two-line orbital elements,

1 35870U 09049F   17262.77653586 +.00008302 +00000-0 +12714-3 0  9991
2 35870 097.1007 278.6729 0004287 083.3528 331.0897 15.54589294447918
Epoch (UTC): 19 September 2017 18:38:12
Eccentricity: 0.0004287
inclination: 97.1007°
perigee height: 400 km
apogee height: 406 km
right ascension of ascending node: 278.6729°
argument of perigee: 83.3528°
revolutions per day: 15.54589294
mean anomaly at epoch: 331.0897°
orbit number at epoch: 44791

The dashed part of the orbit path shows where the satellite is in the earth's shadow,  

DLR